N5CSU Weather Reports


time (UTC)temp
C
wind
direction
speed
KPH
gust
KPH
rain 1hr
cm
rain 24hr
cm
rain mn
cm
humidity
%
barometer
mb
20260506205021 16 176 0.0 0.0 0.00 0.00 0.00 81 1013.9
20260506204520 16 178 0.0 0.0 0.00 0.00 0.00 80 1014.3
20260506204016 16 192 0.0 0.0 0.00 0.00 0.00 80 1014.3
20260506203515 16 172 0.0 0.0 0.00 0.00 0.00 79 1014.2
20260506203010 16 182 0.0 0.0 0.00 0.00 0.00 80 1014.2
20260506202508 16 181 0.0 0.0 0.00 0.00 0.00 78 1014.1
20260506202003 16 208 0.0 0.0 0.00 0.00 0.00 80 1014.3
20260506201502 15 184 0.0 0.0 0.00 0.00 0.00 82 1014.2
20260506200952 15 193 0.0 0.0 0.00 0.00 0.00 83 1014.8
20260506200448 15 192 0.0 0.0 0.00 0.00 0.00 81 1014.4
20260506195945 15 179 0.0 0.0 0.00 0.00 0.00 82 1014.8
20260506195442 15 187 0.0 0.0 0.00 0.00 0.00 80 1014.9
20260506194938 15 187 0.0 0.0 0.00 0.00 0.00 82 1014.7
20260506194436 15 199 0.0 0.0 0.00 0.00 0.00 81 1014.3
20260506193932 15 180 0.0 0.0 0.00 0.00 0.00 81 1014.6
20260506193430 15 169 0.0 0.0 0.00 0.00 0.00 83 1014.5
20260506192926 15 196 0.0 0.0 0.00 0.00 0.00 85 1014.5
20260506192423 14 179 0.0 0.0 0.00 0.00 0.00 85 1014.7
20260506191920 14 179 0.0 1.6 0.00 0.00 0.00 85 1015.0
20260506191416 13 195 0.0 0.0 0.00 0.00 0.00 86 1015.4
20260506190914 13 181 0.0 0.0 0.00 0.00 0.00 87 1015.4
20260506190410 13 187 0.0 0.0 0.00 0.00 0.00 86 1015.2
20260506185907 13 178 0.0 0.0 0.00 0.00 0.00 86 1015.0
20260506185404 13 169 0.0 0.0 0.00 0.00 0.00 86 1014.7
20260506184901 13 174 0.0 0.0 0.00 0.00 0.00 86 1014.8
20260506184358 13 171 0.0 0.0 0.00 0.00 0.00 86 1014.9
20260506183855 13 183 0.0 0.0 0.00 0.00 0.00 87 1015.0
20260506183350 13 160 0.0 0.0 0.00 0.00 0.00 85 1014.5
20260506182848 13 186 0.0 0.0 0.00 0.00 0.00 87 1014.8
20260506182345 13 192 0.0 0.0 0.00 0.00 0.00 86 1014.7
20260506181842 13 189 0.0 0.0 0.00 0.00 0.00 87 1014.2
20260506181340 13 185 0.0 0.0 0.00 0.00 0.00 86 1013.6
20260506180837 13 176 0.0 0.0 0.00 0.00 0.00 87 1013.5
20260506180333 13 199 0.0 1.6 0.00 0.00 0.00 88 1013.3
20260506175829 13 191 0.0 0.0 0.00 0.00 0.00 89 1013.4
20260506175326 13 205 0.0 0.0 0.00 0.00 0.00 88 1013.3
20260506174823 13 173 0.0 0.0 0.00 0.00 0.00 88 1013.7
20260506174321 13 187 0.0 0.0 0.00 0.00 0.00 89 1014.0
20260506173818 13 192 0.0 0.0 0.00 0.00 0.00 89 1014.3
20260506173315 13 118 0.0 3.2 0.00 0.00 0.00 90 1014.0
20260506172812 13 177 0.0 0.0 0.00 0.00 0.00 91 1014.4
20260506172308 13 216 0.0 0.0 0.00 0.00 0.00 90 1014.7
20260506171806 12 173 0.0 0.0 0.00 0.00 0.00 90 1015.0
20260506171303 12 188 0.0 0.0 0.00 0.00 0.00 92 1015.0
20260506170801 12 187 0.0 0.0 0.00 0.00 0.00 91 1014.7
20260506170257 12 183 0.0 0.0 0.00 0.00 0.00 92 1015.1
20260506165755 12 177 0.0 0.0 0.00 0.00 0.00 91 1014.8
20260506165252 12 189 0.0 0.0 0.00 0.00 0.00 90 1014.3
20260506164749 12 203 0.0 0.0 0.00 0.00 0.00 90 1014.0
20260506164246 13 199 0.0 0.0 0.00 0.00 0.00 90 1014.6
20260506163743 13 103 0.0 0.0 0.00 0.00 0.00 90 1014.5
20260506163238 13 192 0.0 0.0 0.00 0.00 0.00 90 1014.4
20260506162734 13 194 0.0 0.0 0.00 0.00 0.00 90 1014.6
20260506162232 13 184 0.0 0.0 0.00 0.00 0.00 90 1014.9
20260506161729 13 169 0.0 0.0 0.00 0.00 0.00 91 1014.8
20260506161226 12 181 0.0 0.0 0.00 0.00 0.00 92 1015.0
20260506160724 12 14 0.0 0.0 0.00 0.00 0.00 92 1015.1
20260506160220 12 138 0.0 0.0 0.00 0.00 0.00 92 1015.1
20260506155719 12 168 0.0 0.0 0.00 0.00 0.00 92 1015.2
20260506155216 12 183 0.0 0.0 0.00 0.00 0.00 93 1015.1
20260506153324 12 181 0.0 0.0 0.00 0.00 0.00 91 1014.8
20260506152821 12 98 1.6 1.6 0.00 0.00 0.00 89 1014.8
20260506152318 12 206 0.0 0.0 0.00 0.00 0.00 85 1015.9
20260506151817 12 189 0.0 0.0 0.00 0.00 0.00 85 1016.4
20260506151313 13 176 1.6 1.6 0.00 0.00 0.00 85 1016.4
20260506150810 13 188 0.0 0.0 0.00 0.00 0.00 85 1015.9
20260506150307 13 188 0.0 0.0 0.00 0.00 0.00 85 1015.6
20260506145804 13 189 0.0 0.0 0.00 0.00 0.00 85 1015.2
20260506145300 12 192 0.0 0.0 0.00 0.00 0.00 86 1015.0
20260506144758 12 192 0.0 0.0 0.00 0.00 0.00 85 1015.1
20260506144254 12 177 1.6 1.6 0.00 0.00 0.00 84 1014.3
20260506143752 12 186 0.0 0.0 0.00 0.00 0.00 85 1014.7
20260506143249 12 179 0.0 0.0 0.00 0.00 0.00 84 1014.6
20260506142748 12 181 0.0 0.0 0.00 0.00 0.00 84 1014.9
20260506142245 12 175 0.0 0.0 0.00 0.00 0.00 84 1014.4
20260506141743 12 176 0.0 0.0 0.00 0.00 0.00 84 1014.6
20260506141241 12 193 0.0 0.0 0.00 0.00 0.00 84 1014.5
20260506140738 12 140 0.0 1.6 0.00 0.00 0.00 84 1014.5
20260506140235 12 191 0.0 0.0 0.00 0.00 0.00 84 1014.6
20260506135732 12 200 0.0 0.0 0.00 0.00 0.00 84 1014.2
20260506135228 12 189 0.0 0.0 0.00 0.00 0.00 84 1014.1
20260506134725 12 188 0.0 0.0 0.00 0.00 0.00 84 1013.9
20260506134222 12 174 3.2 3.2 0.00 0.00 0.00 83 1014.2
20260506133719 13 189 0.0 0.0 0.00 0.00 0.00 83 1014.1
20260506133215 13 188 0.0 0.0 0.00 0.00 0.00 83 1014.1
20260506132713 12 192 0.0 0.0 0.00 0.00 0.00 83 1014.0
20260506132209 13 198 0.0 0.0 0.00 0.00 0.00 83 1013.9
20260506131708 13 195 0.0 0.0 0.00 0.00 0.00 82 1013.4
20260506131203 13 187 0.0 0.0 0.00 0.00 0.00 83 1013.4
20260506130700 13 176 0.0 0.0 0.00 0.00 0.00 82 1013.4
20260506130157 13 176 0.0 1.6 0.00 0.00 0.00 82 1013.7
20260506125655 13 187 0.0 0.0 0.00 0.00 0.00 81 1013.6
20260506125153 13 190 0.0 0.0 0.00 0.00 0.00 82 1013.6
20260506124650 13 192 0.0 0.0 0.00 0.00 0.00 81 1013.4
20260506124149 13 194 0.0 0.0 0.00 0.00 0.00 81 1013.2
20260506123646 13 187 0.0 0.0 0.00 0.00 0.00 81 1013.0
20260506123144 13 186 0.0 0.0 0.00 0.00 0.00 80 1013.2
20260506122641 13 187 0.0 0.0 0.00 0.00 0.00 81 1013.0
20260506122138 13 206 0.0 0.0 0.00 0.00 0.00 80 1012.9
20260506121636 13 183 0.0 0.0 0.00 0.00 0.00 80 1012.8
20260506121132 13 196 0.0 0.0 0.00 0.00 0.00 80 1012.7
20260506120630 13 173 0.0 0.0 0.00 0.00 0.00 79 1013.1
20260506120127 13 189 1.6 1.6 0.00 0.00 0.00 80 1013.0
20260506115626 13 164 0.0 0.0 0.00 0.00 0.00 79 1012.9
20260506115123 13 197 0.0 0.0 0.00 0.00 0.00 79 1012.7
20260506114620 13 201 0.0 0.0 0.00 0.00 0.00 79 1012.7
20260506114118 13 185 0.0 0.0 0.00 0.00 0.00 80 1012.4
20260506113616 13 189 0.0 0.0 0.00 0.00 0.00 79 1012.3
20260506113113 13 197 0.0 0.0 0.00 0.00 0.00 79 1012.0
20260506112610 14 193 0.0 0.0 0.00 0.00 0.00 78 1012.2
20260506112107 14 192 0.0 0.0 0.00 0.00 0.00 79 1012.1
20260506111605 14 200 0.0 0.0 0.00 0.00 0.00 78 1012.1
20260506111102 14 188 0.0 0.0 0.00 0.00 0.00 78 1012.0
20260506110600 14 189 0.0 0.0 0.00 0.00 0.00 79 1011.8
20260506110057 14 189 0.0 0.0 0.00 0.00 0.00 81 1011.7
20260506105553 14 189 0.0 0.0 0.00 0.00 0.00 78 1011.7
20260506105050 14 188 0.0 0.0 0.00 0.00 0.00 80 1011.7
20260506104548 15 190 0.0 0.0 0.00 0.00 0.00 80 1011.4
20260506104046 15 177 0.0 0.0 0.00 0.00 0.00 79 1011.3
20260506103543 15 189 0.0 1.6 0.00 0.00 0.00 79 1011.2
20260506103039 15 184 0.0 0.0 0.00 0.00 0.00 81 1011.3
20260506102538 15 184 0.0 1.6 0.00 0.00 0.00 79 1011.1
20260506102035 15 172 0.0 0.0 0.00 0.00 0.00 78 1010.9
20260506101531 15 179 0.0 0.0 0.00 0.00 0.00 80 1010.9
20260506101028 15 177 0.0 0.0 0.00 0.00 0.00 79 1010.9
20260506100527 15 193 0.0 0.0 0.00 0.00 0.00 78 1010.5
20260506100025 15 173 0.0 0.0 0.00 0.00 0.00 79 1010.7
20260506095523 15 182 0.0 0.0 0.00 0.00 0.00 80 1010.8
20260506095019 15 183 0.0 0.0 0.00 0.00 0.00 81 1010.7
20260506094517 15 185 0.0 0.0 0.00 0.00 0.00 77 1010.4
20260506094015 15 185 0.0 0.0 0.00 0.00 0.00 76 1010.7
20260506093513 15 185 0.0 0.0 0.00 0.00 0.00 77 1010.8
20260506093010 16 182 0.0 0.0 0.00 0.00 0.00 75 1010.7
20260506092508 16 183 0.0 0.0 0.00 0.00 0.00 75 1010.5
20260506092004 16 181 0.0 0.0 0.00 0.00 0.00 76 1010.6
20260506091503 16 182 0.0 1.6 0.00 0.00 0.00 76 1010.5
20260506090959 16 187 0.0 0.0 0.00 0.00 0.00 77 1010.7
20260506090458 16 184 0.0 0.0 0.00 0.00 0.00 77 1010.5
20260506085953 16 183 0.0 0.0 0.00 0.00 0.00 77 1010.6
20260506085450 16 190 0.0 0.0 0.00 0.00 0.00 76 1010.4
20260506084946 16 193 0.0 0.0 0.00 0.00 0.00 77 1010.4
20260506084443 16 188 0.0 0.0 0.00 0.00 0.00 77 1010.2
20260506083940 16 188 0.0 0.0 0.00 0.00 0.00 78 1010.0
20260506083437 16 188 0.0 0.0 0.00 0.00 0.00 77 1010.1
20260506082934 16 195 0.0 0.0 0.00 0.00 0.00 77 1009.9
20260506082431 16 188 0.0 0.0 0.00 0.00 0.00 77 1009.7
20260506081927 16 186 0.0 0.0 0.00 0.00 0.00 77 1009.6
20260506081425 16 194 0.0 0.0 0.00 0.00 0.00 77 1009.8
20260506080922 16 190 0.0 0.0 0.00 0.00 0.00 77 1009.7
20260506080419 16 195 0.0 0.0 0.00 0.00 0.00 77 1009.7
20260506073403 17 190 0.0 0.0 0.00 0.00 0.00 77 1010.0
20260506072900 17 182 0.0 0.0 0.00 0.00 0.00 77 1010.2
20260506072357 17 191 0.0 0.0 0.00 0.00 0.00 77 1010.1
20260506071855 17 201 0.0 0.0 0.00 0.00 0.00 77 1009.9
20260506071353 17 195 0.0 0.0 0.00 0.00 0.00 77 1010.0
20260506070849 17 180 0.0 0.0 0.00 0.00 0.00 77 1010.0
20260506070347 17 187 0.0 0.0 0.00 0.00 0.00 77 1009.9
20260506062324 17 190 0.0 0.0 0.00 0.00 0.00 78 1009.9
20260506061820 17 194 0.0 0.0 0.00 0.00 0.00 78 1009.9
20260506061317 17 196 0.0 0.0 0.00 0.00 0.00 77 1009.9
20260506060815 17 187 0.0 0.0 0.00 0.00 0.00 77 1010.0
20260506060313 17 145 0.0 0.0 0.00 0.00 0.00 77 1009.9
20260506051244 18 186 0.0 0.0 0.00 0.00 0.00 78 1009.6
20260506050742 19 182 0.0 0.0 0.00 0.00 0.00 78 1009.5
20260506050239 19 180 0.0 1.6 0.00 0.00 0.00 78 1009.5
20260506044730 20 118 0.0 0.0 0.00 0.00 0.00 78 1009.5
20260506044227 20 175 0.0 0.0 0.00 0.00 0.00 77 1009.5
20260506043725 20 170 0.0 1.6 0.00 0.00 0.00 79 1009.6
20260506043222 20 189 0.0 0.0 0.00 0.00 0.00 78 1009.4
20260506042721 20 184 0.0 1.6 0.00 0.00 0.00 79 1009.0
20260506042219 20 162 0.0 0.0 0.00 0.00 0.00 79 1009.1
20260506041717 20 191 0.0 0.0 0.00 0.00 0.00 80 1008.9
20260506041214 21 195 0.0 0.0 0.00 0.00 0.00 80 1008.8
20260506040711 21 179 0.0 0.0 0.00 0.00 0.00 80 1008.8
20260506040208 21 185 0.0 0.0 0.00 0.00 0.00 80 1008.5
20260506035704 21 191 0.0 0.0 0.00 0.00 0.00 81 1008.9
20260506035201 21 186 0.0 0.0 0.00 0.00 0.00 81 1008.5
20260506034658 21 186 0.0 0.0 0.00 0.00 0.00 80 1008.8
20260506034155 21 185 0.0 0.0 0.00 0.00 0.00 81 1008.5
20260506033653 21 185 0.0 0.0 0.00 0.00 0.00 81 1008.3
20260506033149 21 184 0.0 0.0 0.00 0.00 0.00 81 1008.3
20260506032646 21 193 0.0 0.0 0.00 0.00 0.00 81 1008.4
20260506032143 21 178 0.0 0.0 0.00 0.00 0.00 81 1008.2
20260506031640 21 183 0.0 0.0 0.00 0.00 0.00 80 1008.0
20260506031137 21 186 0.0 0.0 0.00 0.00 0.00 82 1008.1
20260506030636 21 189 0.0 0.0 0.00 0.00 0.00 83 1008.1
20260506030132 21 192 0.0 0.0 0.00 0.00 0.00 87 1007.9
20260506025629 21 189 0.0 0.0 0.00 0.00 0.00 87 1007.5
20260506025125 21 197 0.0 0.0 0.00 0.00 0.00 87 1007.6
20260506024623 21 195 0.0 0.0 0.00 0.00 0.00 88 1007.5
20260506024119 21 192 0.0 0.0 0.00 0.00 0.00 89 1007.5
20260506023615 21 185 0.0 0.0 0.00 0.00 0.00 90 1007.1
20260506023113 21 193 0.0 0.0 0.00 0.00 0.00 90 1007.0
20260506022610 21 193 0.0 0.0 0.00 0.00 0.00 90 1006.8
20260506022107 21 193 0.0 0.0 0.00 0.00 0.00 90 1006.4
20260506021605 21 192 0.0 0.0 0.00 0.00 0.00 89 1006.2
20260506021102 21 189 0.0 0.0 0.00 0.00 0.00 88 1006.4
20260506020559 21 192 0.0 0.0 0.00 0.00 0.00 89 1006.4
20260506020057 22 192 0.0 0.0 0.00 0.00 0.00 88 1006.3
20260506015554 22 192 0.0 0.0 0.00 0.00 0.00 89 1006.0
20260506015051 22 196 0.0 0.0 0.00 0.00 0.00 88 1006.3
20260506014548 22 202 0.0 0.0 0.00 0.00 0.00 88 1006.3
20260506014043 22 200 0.0 0.0 0.00 0.00 0.00 88 1006.0
20260506013542 22 195 0.0 0.0 0.00 0.00 0.00 88 1006.0
20260506013039 23 183 0.0 0.0 0.00 0.00 0.00 92 1005.7
20260506012535 23 190 0.0 0.0 0.00 0.00 0.00 94 1006.0
20260506012032 23 188 0.0 0.0 0.00 0.00 0.00 95 1006.1
20260506011530 24 188 0.0 0.0 0.00 0.00 0.00 95 1005.9
20260506011025 24 203 0.0 0.0 0.00 0.00 0.00 95 1005.5
20260506010525 24 186 0.0 0.0 0.00 0.00 0.00 94 1005.5
20260506010021 24 188 0.0 0.0 0.00 0.00 0.00 94 1005.1
20260506005518 24 186 0.0 0.0 0.00 0.00 0.00 93 1005.2
20260506005014 24 186 0.0 0.0 0.00 0.00 0.00 93 1005.4
20260506004512 25 185 0.0 0.0 0.00 0.00 0.00 93 1005.3
20260506004008 25 186 0.0 0.0 0.00 0.00 0.00 92 1005.2
20260506003504 25 177 0.0 0.0 0.00 0.00 0.00 92 1004.9
20260506003000 25 191 0.0 0.0 0.00 0.00 0.00 91 1005.2
20260506002457 25 151 0.0 1.6 0.00 0.00 0.00 90 1005.0
20260506001952 26 183 0.0 0.0 0.00 0.00 0.00 88 1005.1
20260506001449 26 182 0.0 0.0 0.00 0.00 0.00 87 1005.2
20260506000946 27 199 0.0 0.0 0.00 0.00 0.00 83 1005.0
20260506000445 27 177 0.0 0.0 0.00 0.00 0.00 78 1004.8
20260505235941 28 196 0.0 0.0 0.00 0.00 0.00 75 1004.6
20260505235439 28 240 0.0 1.6 0.00 0.00 0.00 75 1004.3
20260505234935 28 210 0.0 0.0 0.00 0.00 0.00 74 1004.1
20260505234433 28 181 0.0 0.0 0.00 0.00 0.00 73 1004.2
20260505233929 28 184 0.0 0.0 0.00 0.00 0.00 73 1004.1
20260505233427 28 196 0.0 0.0 0.00 0.00 0.00 74 1004.2
20260505232925 28 189 0.0 0.0 0.00 0.00 0.00 73 1004.2
20260505232422 29 208 0.0 0.0 0.00 0.00 0.00 72 1004.1
20260505231919 29 193 0.0 0.0 0.00 0.00 0.00 71 1004.0
20260505231416 29 171 0.0 1.6 0.00 0.00 0.00 71 1004.3
20260505230914 30 175 0.0 0.0 0.00 0.00 0.00 70 1004.3
20260505230412 30 195 1.6 1.6 0.00 0.00 0.00 69 1004.0
20260505225908 30 190 0.0 1.6 0.00 0.00 0.00 68 1004.0
20260505225406 30 190 0.0 0.0 0.00 0.00 0.00 69 1003.7
20260505224906 30 201 0.0 0.0 0.00 0.00 0.00 68 1003.8
20260505224404 30 183 0.0 0.0 0.00 0.00 0.00 69 1003.8
20260505223900 30 201 0.0 0.0 0.00 0.00 0.00 69 1003.9
20260505223357 30 175 0.0 0.0 0.00 0.00 0.00 68 1003.8
20260505222853 30 199 0.0 0.0 0.00 0.00 0.00 68 1003.6
20260505222350 30 196 1.6 3.2 0.00 0.00 0.00 68 1003.7
20260505221847 30 192 0.0 0.0 0.00 0.00 0.00 68 1003.7
20260505221343 30 202 0.0 0.0 0.00 0.00 0.00 66 1003.8
20260505220840 30 189 3.2 3.2 0.00 0.00 0.00 63 1003.7
20260505220337 30 178 0.0 1.6 0.00 0.00 0.00 65 1003.7
20260505215835 30 190 0.0 0.0 0.00 0.00 0.00 67 1003.5
20260505215333 30 185 1.6 1.6 0.00 0.00 0.00 65 1003.8
20260505214831 30 202 0.0 0.0 0.00 0.00 0.00 67 1003.8
20260505214328 30 216 0.0 0.0 0.00 0.00 0.00 66 1003.8
20260505213825 30 197 0.0 0.0 0.00 0.00 0.00 66 1003.8
20260505213323 30 195 1.6 1.6 0.00 0.00 0.00 65 1004.0
20260505212819 30 200 0.0 0.0 0.00 0.00 0.00 65 1003.9
20260505212316 30 208 0.0 0.0 0.00 0.00 0.00 67 1004.1
20260505211812 30 173 0.0 1.6 0.00 0.00 0.00 65 1004.1
20260505211310 31 195 0.0 1.6 0.00 0.00 0.00 64 1004.1
20260505210806 31 188 0.0 1.6 0.00 0.00 0.00 63 1004.4
20260505210303 30 213 0.0 0.0 0.00 0.00 0.00 65 1004.2
20260505205800 30 197 0.0 0.0 0.00 0.00 0.00 67 1004.3
20260505205259 30 177 0.0 1.6 0.00 0.00 0.00 67 1004.4